Weather History for Bishop, CA

Change the Weather History Date:

Saturday, January 11, 2014

  Actual Average Record
Temperature  
Mean Temperature 48 °F 38 °F  
Max Temperature 71 °F 54 °F 71 °F (1998)
Min Temperature 25 °F 23 °F -3 °F (1974)
Degree Days  
Heating Degree Days 17 27  
Month to date heating degree days 236 299  
Since 1 July heating degree days 2044 2046  
Cooling Degree Days 0 0  
Month to date cooling degree days 0 0  
Year to date cooling degree days 0 0  
Moisture  
Dew Point 21 °F    
Average Humidity 44    
Maximum Humidity 75    
Minimum Humidity 13    
Precipitation  
Precipitation 0.00 in 0.04 in 0.60 in (1980)
Month to date precipitation 0.00 0.45  
Year to date precipitation 0.00 0.45  
Snow  
Snow 0.00 in 0.10 in 2.90 in (1951)
Month to date snowfall 0.0 1.4  
Since 1 July snowfall 0.5 3.1  
Snow Depth 0.00 in    
Sea Level Pressure  
Sea Level Pressure 30.07 in    
Wind  
Wind Speed 8 mph (NNW)    
Max Wind Speed 30 mph    
Max Gust Speed 42 mph    
Visibility 10 miles    
Events      
T = Trace of Precipitation, MM = Missing Value Source: NWS Daily Summary

Daily Weather History Graph

Daily Weather History Graph

Search for Another Location

Airport:

Trip Planner

Search our weather history database for the weather conditions in past years. The results will help you decide how hot, cold, wet, or windy it might be!

Date:

Astronomy

Jan. 11, 2014 Rise Set
Actual Time 7:07 AM PST 4:55 PM PST
Civil Twilight 6:38 AM PST 5:24 PM PST
Nautical Twilight 6:06 AM PST 5:56 PM PST
Astronomical Twilight 5:35 AM PST 6:27 PM PST
Moon 1:42 PM PST (1/11) 3:17 AM PST (1/11)
Length of Visible Light 10h 45m
Length of Day
9h 47m
Waxing Gibbous, 84% of the Moon is Illuminated
Jan 11
Waxing Gibbous
Jan 15
Full
Jan 23
Last Quarter
Jan 30
New
Feb 6
First Quarter

Hourly Weather History & Observations

Time (PST) Temp. Windchill Dew Point Humidity Pressure Visibility Wind Dir Wind Speed Gust Speed Precip Events Conditions
12:56 AM 34.0 °F 28.0 °F 21.9 °F 61% 30.15 in 10.0 mi WNW 6.9 mph - N/A   Clear
1:56 AM 34.0 °F 27.2 °F 21.0 °F 59% 30.15 in 10.0 mi WNW 8.1 mph - N/A   Clear
2:56 AM 32.0 °F 26.4 °F 21.0 °F 64% 30.15 in 10.0 mi WNW 5.8 mph - N/A   Clear
3:56 AM 27.0 °F 19.5 °F 18.0 °F 69% 30.15 in 10.0 mi NNW 6.9 mph - N/A   Clear
4:56 AM 28.9 °F 23.9 °F 19.0 °F 67% 30.17 in 10.0 mi North 4.6 mph - N/A   Clear
5:56 AM 27.0 °F 20.5 °F 19.0 °F 72% 30.18 in 10.0 mi WNW 5.8 mph - N/A   Clear
6:56 AM 26.1 °F 21.9 °F 19.0 °F 75% 30.19 in 10.0 mi NNW 3.5 mph - N/A   Clear
7:56 AM 27.0 °F 20.5 °F 19.0 °F 72% 30.19 in 10.0 mi ENE 5.8 mph - N/A   Clear
8:56 AM 36.0 °F 32.1 °F 21.9 °F 57% 30.19 in 10.0 mi NW 4.6 mph - N/A   Clear
9:56 AM 48.0 °F - 24.1 °F 39% 30.14 in 10.0 mi North 4.6 mph - N/A   Clear
10:56 AM 54.0 °F - 24.1 °F 31% 30.11 in 10.0 mi Calm Calm - N/A   Clear
11:56 AM 57.0 °F - 25.0 °F 29% 30.05 in 10.0 mi Variable 3.5 mph - N/A   Clear
12:56 PM 60.1 °F - 24.1 °F 25% 30.00 in 10.0 mi SSE 10.4 mph - N/A   Clear
1:56 PM 70.0 °F - 17.1 °F 13% 29.96 in 10.0 mi North 6.9 mph 29.9 mph N/A   Clear
2:56 PM 68.0 °F - 15.1 °F 13% 29.99 in 10.0 mi NW 15.0 mph 25.3 mph N/A   Scattered Clouds
3:56 PM 62.1 °F - 26.1 °F 25% 29.99 in 10.0 mi West 16.1 mph 25.3 mph N/A   Clear
4:56 PM 57.0 °F - 26.1 °F 30% 29.98 in 10.0 mi WNW 3.5 mph - N/A   Clear
5:56 PM 61.0 °F - 23.0 °F 23% 29.98 in 10.0 mi NNW 11.5 mph 21.9 mph N/A   Clear
6:56 PM 50.0 °F - 26.1 °F 39% 30.03 in 10.0 mi North 10.4 mph - N/A   Clear
7:56 PM 46.9 °F - 24.1 °F 41% 30.04 in 10.0 mi NNE 10.4 mph - N/A   Clear
8:56 PM 46.9 °F - 21.0 °F 36% 30.03 in 10.0 mi NNE 8.1 mph - N/A   Clear
9:56 PM 45.0 °F 41.2 °F 19.0 °F 36% 30.01 in 10.0 mi NNE 6.9 mph - N/A   Clear
10:56 PM 50.0 °F - 17.1 °F 27% 29.96 in 10.0 mi NNE 12.7 mph - N/A   Clear
11:56 PM 53.1 °F - 16.0 °F 23% 29.95 in 10.0 mi North 17.3 mph 33.4 mph N/A   Clear